Wind_Speed
20 19 18 17 19 20 19 18 19 17 20 15 12 17 16 16 18 21 24 24 26 25 25 26 24 24 24 22 23 22 23 22 18 19 26 26 23 21
22 23 26 29 30 27 23 21 16 19 15 22 23 24 21 21 24 28 28 24 22 22 24 25 22 22 24 20 20 23 24 24 22 20 20 27 28 24
26 31 31 24 16 14 13 12 13 15 19 20 18 16 16 20 21 24 26 25 23 22 21 21 20 21 18 19 19 19 19 21 22 21 22 22 28 29
28 23 18 15 14 16 15 11 10 13 17 20 20 19 18 15 16 23 21 21 23 22 19 18 17 17 21 23 27 28 29 27 25 24 22 22 24 29
22 20 18 18 17 14 14 15 14 13 14 16 18 17 16 17 18 18 20 24 21 21 23 21 20 20 19 20 21 23 23 25 28 26 20 19 20 23
23 21 18 18 18 17 17 17 17 17 19 21 22 22 21 20 20 21 22 22 24 22 19 18 14 15 16 19 22 23 23 23 23 29 23 16 14 15
24 21 17 13 19 22 23 23 23 22 21 21 22 22 20 19 20 21 23 24 25 24 22 21 21 21 21 22 23 22 22 19 22 23 18 14 11 10
22 21 18 14 18 20 21 21 22 25 25 24 25 25 26 26 27 26 26 25 29 26 21 24 23 24 22 23 20 18 16 15 15 19 19 17 15 16
21 18 16 15 15 16 21 25 23 18 15 16 18 19 23 23 23 25 27 30 31 31 28 30 26 28 26 26 21 18 16 14 13 16 22 17 17 14
20 18 16 16 16 18 20 20 21 18 17 19 17 21 20 19 18 19 22 25 27 29 27 34 28 26 22 19 17 15 15 16 17 16 19 21 20 21
20 18 16 16 17 19 19 21 21 20 20 19 18 17 16 12 13 17 17 17 22 23 18 21 20 20 21 22 21 21 21 21 22 22 23 24 25 26
19 16 16 16 18 19 19 20 20 22 23 21 19 18 18 16 13 14 15 20 17 19 9 17 22 23 25 29 27 30 30 29 28 28 28 28 29 31
20 19 17 18 18 18 17 16 18 21 20 18 17 18 18 17 16 14 13 13 17 20 20 20 24 24 24 32 36 33 32 28 25 25 25 28 30 31
20 18 19 19 17 18 17 17 17 17 17 17 17 19 19 19 17 16 15 16 15 16 18 18 23 22 24 29 35 35 36 33 28 26 25 26 30 32
21 19 18 18 18 17 15 16 17 18 18 18 19 18 19 18 18 16 15 15 18 18 18 17 17 19 22 28 35 37 34 33 33 31 28 26 29 31
24 21 18 17 17 17 17 17 18 21 20 19 18 19 18 18 18 16 17 16 18 18 16 16 17 20 26 29 29 34 33 33 31 28 28 27 27 28
22 19 19 20 21 21 20 20 21 22 22 21 21 21 21 20 21 18 17 17 19 22 23 21 20 21 23 24 29 30 28 28 25 24 23 26 28 28
20 20 22 23 23 22 22 23 23 23 21 21 22 23 24 23 22 20 18 19 21 22 24 25 25 28 26 26 22 27 29 24 23 20 19 24 25 23
20 20 23 23 21 21 21 22 23 22 22 23 24 24 26 26 23 21 20 20 21 23 24 24 25 27 32 36 35 22 27 26 22 20 19 19 23 22
20 22 24 20 19 20 21 21 22 23 25 27 26 25 24 22 22 23 21 19 19 23 26 26 27 28 30 36 37 28 15 22 15 17 19 20 20 19
25 24 20 19 18 19 21 21 23 25 28 28 27 24 21 19 22 22 20 17 17 20 26 28 26 23 26 29 27 29 19 13 11 12 11 11 14 17
26 22 20 18 18 20 22 22 24 26 28 29 26 23 20 19 22 22 18 18 19 21 25 27 23 21 22 26 24 24 20 21 11 17 18 14 11 10
24 21 20 17 18 20 22 23 23 26 28 27 22 21 21 22 20 19 19 19 21 23 26 26 20 18 21 23 20 19 27 24 18 20 8 17 19 21
Wind_Direction
310 310 311 309 299 299 302 311 317 324 324 341 308 267 262 277 301 301 298 297 296 298 303 313 314 300 294 295 296 295 298 301 304 302 257 253 257 255
317 313 310 311 315 315 313 312 326 317 308 316 309 316 313 283 278 284 296 303 315 316 314 309 305 291 287 295 292 291 291 295 298 300 293 253 248 252
321 322 321 321 329 328 331 325 318 312 309 312 308 310 295 285 295 280 283 287 302 309 308 308 301 286 288 282 282 285 287 286 290 295 295 287 245 245
335 338 338 334 340 337 335 334 324 318 315 313 312 312 304 294 279 279 285 293 301 301 304 297 291 280 281 283 283 286 285 283 281 286 290 284 276 241
341 341 336 326 327 330 325 323 321 316 313 311 313 313 310 300 292 282 283 293 291 296 299 294 287 287 288 290 288 288 289 283 273 276 284 285 280 258
336 330 326 326 317 318 319 321 318 312 307 306 305 303 302 300 295 295 290 286 292 299 304 304 285 285 288 290 291 289 282 283 271 268 269 279 280 263
329 327 325 318 305 309 316 315 314 313 312 309 306 304 306 307 304 300 295 296 294 300 305 302 291 291 294 295 294 290 283 279 268 271 255 255 257 260
338 332 328 316 309 316 318 315 318 320 316 312 305 299 297 296 294 297 297 298 302 304 304 295 296 296 300 307 298 283 280 281 270 265 248 244 255 258
342 342 337 328 323 320 316 321 326 337 335 329 323 320 313 307 300 292 290 290 289 292 293 293 297 298 300 300 293 280 274 270 264 262 247 246 250 250
350 347 338 332 330 335 335 337 337 340 337 331 323 320 319 317 312 305 300 293 289 291 288 284 295 295 298 297 296 283 277 275 271 268 262 256 249 246
356 360 358 355 354 350 339 335 335 336 331 328 323 320 323 327 311 315 302 309 320 316 304 296 305 301 300 297 295 296 294 288 281 275 273 265 260 256
358 2 356 354 359 344 335 333 336 331 330 327 322 316 317 312 308 312 316 315 317 321 343 320 308 311 309 306 304 303 299 291 285 277 271 268 261 259
354 352 353 356 345 336 338 338 329 322 327 329 329 329 326 319 313 309 306 304 307 295 299 303 303 304 298 300 301 303 301 297 288 277 266 258 255 252
352 346 348 341 339 341 341 343 336 330 331 334 332 335 338 337 329 317 307 302 298 300 306 299 297 299 299 299 300 300 299 299 295 284 276 264 252 249
347 342 334 336 338 340 346 345 345 343 339 338 336 337 338 335 332 325 314 308 302 297 300 301 300 303 299 299 298 298 302 300 293 287 281 268 253 249
339 336 335 339 346 351 355 356 360 1 356 346 338 333 333 336 335 334 330 326 320 316 304 307 310 306 302 297 298 297 300 287 291 283 276 269 256 247
335 334 341 347 352 356 358 358 358 358 356 354 350 343 337 332 332 332 333 334 330 326 321 320 316 309 305 307 309 310 306 302 294 289 286 277 258 251
340 343 348 350 352 354 355 355 359 358 357 355 352 350 345 338 328 327 329 330 331 330 326 328 330 329 326 323 325 315 312 306 306 295 287 282 263 245
349 350 348 348 350 352 353 356 355 358 356 354 349 346 344 339 334 326 317 318 320 329 331 334 335 337 328 318 329 325 314 317 310 291 269 263 261 256
355 349 345 347 348 349 351 352 352 351 352 351 349 345 340 335 342 343 336 327 326 328 329 334 337 335 326 323 325 335 346 325 303 287 275 264 267 247
349 347 349 348 348 347 348 348 349 350 350 348 346 342 343 343 345 341 340 336 330 330 330 332 336 334 331 340 340 346 355 341 301 301 310 262 253 237
347 348 348 346 347 347 346 348 346 350 348 347 351 350 353 350 344 344 341 339 335 328 326 330 336 341 347 353 357 6 6 357 296 272 266 257 240 229
346 346 344 346 346 345 347 346 347 348 347 351 355 358 355 344 343 346 343 329 330 329 328 330 339 352 358 7 16 11 22 26 18 28 348 261 249 245
Height
1552 1549 1546 1542 1539 1537 1533 1531 1528 1524 1521 1522 1518 1518 1516 1514 1513 1510 1508 1507 1506 1504 1503 1501 1500 1499 1497 1496 1495 1494 1492 1491 1489 1487 1489 1491 1490 1493
1547 1544 1541 1537 1533 1531 1528 1526 1524 1521 1518 1517 1515 1514 1512 1510 1509 1506 1503 1500 1500 1498 1496 1496 1494 1493 1492 1491 1490 1489 1488 1486 1485 1483 1482 1483 1484 1485
1543 1539 1535 1531 1528 1525 1522 1521 1519 1518 1515 1512 1511 1509 1507 1505 1502 1502 1500 1494 1494 1493 1491 1490 1489 1487 1486 1485 1484 1483 1482 1481 1480 1478 1476 1475 1478 1480
1540 1536 1532 1528 1525 1522 1519 1517 1516 1514 1511 1508 1506 1504 1501 1499 1496 1494 1493 1490 1488 1487 1485 1485 1483 1481 1480 1479 1478 1477 1476 1475 1474 1473 1471 1469 1468 1471
1537 1533 1529 1525 1522 1520 1517 1515 1512 1510 1507 1504 1501 1499 1496 1495 1492 1490 1487 1485 1483 1481 1480 1479 1477 1475 1474 1473 1472 1470 1468 1468 1467 1466 1466 1464 1463 1463
1534 1530 1527 1523 1520 1517 1515 1512 1509 1506 1503 1500 1496 1493 1491 1489 1487 1484 1481 1480 1477 1476 1475 1472 1471 1469 1468 1467 1465 1464 1462 1460 1460 1459 1460 1459 1459 1459
1530 1526 1523 1521 1517 1514 1510 1507 1504 1501 1498 1494 1491 1488 1485 1483 1481 1478 1475 1473 1471 1470 1468 1467 1465 1463 1462 1460 1458 1456 1454 1453 1453 1454 1454 1454 1454 1455
1525 1521 1518 1516 1512 1509 1506 1503 1500 1495 1491 1488 1484 1481 1479 1477 1474 1472 1470 1467 1463 1463 1461 1458 1458 1455 1454 1452 1451 1449 1448 1447 1446 1447 1448 1448 1449 1449
1521 1517 1514 1512 1509 1506 1502 1498 1495 1491 1487 1483 1479 1477 1473 1471 1468 1465 1463 1461 1457 1455 1454 1449 1451 1448 1447 1445 1444 1443 1442 1441 1441 1440 1441 1441 1443 1443
1519 1515 1511 1508 1505 1502 1498 1494 1491 1487 1483 1480 1476 1473 1469 1466 1463 1459 1456 1453 1450 1447 1447 1441 1442 1439 1439 1438 1437 1436 1436 1436 1435 1435 1435 1435 1436 1437
1517 1513 1509 1506 1502 1500 1495 1491 1487 1483 1480 1476 1473 1469 1466 1462 1459 1455 1452 1449 1445 1441 1440 1437 1435 1433 1432 1430 1431 1430 1429 1429 1428 1428 1428 1428 1429 1429
1516 1512 1508 1504 1501 1498 1493 1488 1483 1479 1475 1471 1467 1464 1461 1458 1455 1452 1449 1446 1443 1439 1437 1435 1431 1431 1424 1421 1422 1422 1420 1419 1418 1418 1418 1419 1420 1420
1514 1510 1506 1502 1499 1495 1490 1486 1481 1476 1472 1467 1464 1460 1456 1452 1449 1447 1445 1442 1439 1436 1434 1432 1427 1425 1423 1416 1412 1412 1410 1408 1407 1406 1407 1407 1409 1410
1513 1509 1504 1501 1497 1492 1487 1482 1478 1473 1468 1464 1460 1456 1452 1448 1445 1442 1439 1437 1435 1432 1430 1428 1423 1420 1417 1411 1405 1403 1400 1398 1396 1395 1395 1396 1397 1398
1512 1508 1503 1499 1494 1489 1484 1479 1474 1469 1465 1460 1457 1453 1449 1445 1441 1438 1435 1432 1429 1427 1425 1422 1419 1415 1412 1406 1400 1393 1390 1388 1386 1384 1384 1384 1384 1386
1509 1505 1500 1496 1491 1486 1481 1476 1471 1467 1462 1458 1454 1449 1445 1441 1438 1434 1430 1427 1423 1421 1419 1417 1413 1409 1403 1399 1394 1386 1383 1380 1377 1376 1375 1373 1373 1375
1506 1502 1496 1491 1487 1482 1477 1473 1469 1464 1460 1456 1451 1446 1442 1438 1434 1431 1427 1423 1420 1415 1411 1409 1407 1403 1398 1392 1384 1378 1373 1370 1367 1366 1366 1363 1362 1364
1504 1498 1493 1489 1484 1479 1475 1470 1467 1463 1458 1454 1449 1445 1440 1435 1430 1427 1424 1420 1416 1413 1408 1404 1399 1393 1387 1382 1378 1370 1365 1361 1359 1357 1356 1355 1353 1355
1501 1496 1492 1487 1483 1479 1474 1470 1465 1462 1457 1452 1447 1442 1437 1432 1427 1423 1420 1416 1412 1409 1405 1401 1397 1392 1384 1376 1369 1365 1358 1353 1350 1349 1348 1348 1348 1348
1499 1495 1490 1485 1481 1477 1473 1468 1464 1459 1454 1449 1444 1439 1434 1430 1425 1420 1416 1412 1409 1406 1401 1397 1394 1389 1383 1374 1363 1354 1352 1346 1345 1343 1341 1341 1341 1343
1497 1492 1488 1484 1480 1476 1471 1467 1462 1457 1452 1446 1441 1436 1431 1427 1423 1419 1414 1411 1408 1404 1399 1394 1390 1386 1379 1371 1362 1353 1347 1343 1341 1339 1336 1335 1335 1336
1495 1490 1486 1482 1478 1474 1469 1464 1459 1454 1449 1444 1438 1433 1429 1425 1421 1416 1412 1409 1405 1402 1397 1392 1387 1382 1376 1369 1360 1353 1346 1341 1337 1335 1334 1333 1332 1332
1492 1488 1484 1480 1476 1472 1467 1462 1457 1452 1447 1441 1437 1432 1428 1423 1419 1415 1411 1407 1403 1399 1395 1389 1384 1381 1375 1368 1361 1355 1348 1341 1337 1331 1328 1325 1326 1328